This demonstration page uses our WeatherBlox Daily Observations layout. Learn more.

Left ArrowRight Arrow

30.21309, -93.2044

Hourly Observations for August 28, 2022

Temp ( °F °C ) Dew Point ( °F °C ) Humidity (%) Winds ( mph kmh ) Pressure ( in mb ) Visibility ( mi km ) Precip ( " mm )
12:15 am 00:15 Clear 77 25.2 76 24.2 94 94 SE 3 6 29.88 1012 10 16 0.00 0.00
12:35 am 00:35 Clear 77 25.1 75 24.1 94 94 E 3 6 29.88 1012 10 16 0.00 0.00
12:55 am 00:55 Clear 77 25 75 24 94 94 ESE 5 7 29.88 1012 10 16 0.00 0.00
1:15 am 01:15 Clear 77 24.9 75 23.9 94 94 ESE 3 6 29.88 1012 10 16 0.00 0.00
1:35 am 01:35 Clear 76 24.7 75 23.8 95 95 ESE 3 6 29.88 1012 10 16 0.00 0.00
1:55 am 01:55 Clear 76 24.6 75 23.7 95 95 E 5 7 29.88 1012 10 16 0.00 0.00
2:15 am 02:15 Clear 76 24.6 75 23.7 95 95 ESE 5 7 29.88 1012 10 16 0.00 0.00
2:35 am 02:35 Clear 76 24.4 74 23.5 95 95 SE 5 7 29.88 1012 10 16 0.00 0.00
2:55 am 02:55 Clear 76 24.5 74 23.6 95 95 SSE 3 6 29.88 1012 10 16 0.00 0.00
3:15 am 03:15 Clear 76 24.5 74 23.6 95 95 SE 5 7 29.88 1012 10 16 0.00 0.00
3:35 am 03:35 Clear 76 24.7 75 23.8 95 95 ESE 3 6 29.88 1012 10 16 0.00 0.00
3:55 am 03:55 Clear 76 24.5 74 23.6 95 95 Calm 29.88 1012 10 16 0.00 0.00
4:15 am 04:15 Partly Cloudy 76 24.6 75 23.7 95 95 ESE 3 6 29.88 1012 10 16 0.00 0.00
4:35 am 04:35 Partly Cloudy 76 24.3 74 23.4 95 95 E 3 6 29.88 1012 10 16 0.00 0.00
4:55 am 04:55 Clear 76 24.4 74 23.5 95 95 E 5 7 29.88 1012 10 16 0.00 0.00
5:15 am 05:15 Clear 76 24.6 75 23.7 95 95 E 3 6 29.88 1012 10 16 0.00 0.00
5:35 am 05:35 Partly Cloudy 76 24.6 75 23.8 95 95 E 5 7 29.89 1012 10 16 0.00 0.00
6:00 am 06:00 Partly Cloudy 75 24 75 24 100 100 Calm 29.89 1012 10 16 0.00 0.00
6:55 am 06:55 Mostly Sunny 75 24 75 24 100 100 Calm 29.90 1013 10 16 0.00 0.00
8:48 am 08:48 Mostly Sunny 82 28 79 26 89 89 ESE 5 7 29.92 1013 10 16 0.00 0.00
9:50 am 09:50 Mostly Cloudy 84 29 77 25 79 79 ESE 6 9 29.92 1013 10 16 0.00 0.00
10:52 am 10:52 Mostly Cloudy 88 31 75 24 66 66 SE 9 15 29.92 1013 10 16 0.00 0.00
11:54 am 11:54 Mostly Cloudy 90 32 75 24 63 63 SE 10 17 29.92 1013 10 16 0.00 0.00
12:46 pm 12:46 Mostly Cloudy 90 32 75 24 63 63 SSE 8 13 29.92 1013 10 16 0.00 0.00
1:28 pm 13:28 Mostly Cloudy with Rain 82 28 73 23 74 74 SE 10 17 29.91 1013 3 5 0.00 0.00
1:51 pm 13:51 Mostly Cloudy with Showers 81 27 75 24 84 84 E 12 19 29.90 1012 10 16 0.00 0.00
2:52 pm 14:52 Mostly Cloudy 90 32 75 24 63 63 S 12 19 29.89 1012 10 16 0.00 0.00
3:50 pm 15:50 Mostly Cloudy 90 32 73 23 59 59 S 15 24 29.88 1012 10 16 0.00 0.00
4:45 pm 16:45 Mostly Cloudy 90 32 75 24 63 63 S 13 20 29.87 1011 10 16 0.00 0.00
5:50 pm 17:50 Partly Cloudy 88 31 75 24 66 66 S 14 22 29.87 1011 10 16 0.00 0.00
6:55 pm 18:55 Partly Cloudy 84 29 75 24 74 74 S 12 19 29.88 1012 10 16 0.00 0.00
7:51 pm 19:51 Partly Cloudy 81 27 75 24 84 84 SSE 8 13 29.89 1012 10 16 0.00 0.00
8:55 pm 20:55 Mostly Clear 79 26 75 24 89 89 Calm 29.88 1012 10 16 0.00 0.00
9:50 pm 21:50 Mostly Clear 77 25 72 22 83 83 E 7 11 29.88 1012 10 16 0.00 0.00
10:15 pm 22:15 Clear 76 24.5 72 22.3 88 88 SE 7 11 29.89 1012 10 16 0.00 0.00
10:35 pm 22:35 Clear 76 24.3 73 22.5 90 90 E 5 7 29.89 1012 10 16 0.00 0.00
10:55 pm 22:55 Clear 75 24.1 72 22.4 90 90 E 5 7 29.89 1012 10 16 0.00 0.00
11:15 pm 23:15 Clear 75 23.7 72 22.3 92 92 E 6 9 29.88 1012 10 16 0.00 0.00
11:35 pm 23:35 Clear 75 23.8 73 22.6 93 93 E 3 6 29.88 1012 10 16 0.00 0.00
11:55 pm 23:55 Clear 75 23.9 73 22.8 94 94 E 6 9 29.88 1012 10 16 0.00 0.00

Powered by AerisWeather